Year,Month,Day,Hour,Minute,Value (Times are PST for temperature in C)
2015,08,03,00,00,20.60
2015,08,03,00,01,20.70
2015,08,03,00,02,20.70
2015,08,03,00,03,20.70
2015,08,03,00,04,20.80
2015,08,03,00,05,20.80
2015,08,03,00,06,20.80
2015,08,03,00,07,20.80
2015,08,03,00,08,20.80
2015,08,03,00,09,20.80
2015,08,03,00,10,20.80
2015,08,03,00,11,20.80
2015,08,03,00,12,20.80
2015,08,03,00,13,20.80
2015,08,03,00,14,20.80
2015,08,03,00,15,20.80
2015,08,03,00,16,20.80
2015,08,03,00,17,20.80
2015,08,03,00,18,20.70
2015,08,03,00,19,20.70
2015,08,03,00,20,20.70
2015,08,03,00,21,20.70
2015,08,03,00,22,20.70
2015,08,03,00,23,20.70
2015,08,03,00,24,20.70
2015,08,03,00,25,20.70
2015,08,03,00,26,20.60
2015,08,03,00,27,20.60
2015,08,03,00,28,20.60
2015,08,03,00,29,20.60
2015,08,03,00,30,20.60
2015,08,03,00,31,20.60
2015,08,03,00,32,20.50
2015,08,03,00,33,20.50
2015,08,03,00,34,20.50
2015,08,03,00,35,20.50
2015,08,03,00,36,20.40
2015,08,03,00,37,20.40
2015,08,03,00,38,20.40
2015,08,03,00,39,20.30
2015,08,03,00,40,20.30
2015,08,03,00,41,20.20
2015,08,03,00,42,20.20
2015,08,03,00,43,20.20
2015,08,03,00,44,20.20
2015,08,03,00,45,20.20
2015,08,03,00,46,20.20
2015,08,03,00,47,20.10
2015,08,03,00,48,20.10
2015,08,03,00,49,20.10
2015,08,03,00,50,20.10
2015,08,03,00,51,20.00
2015,08,03,00,52,20.00
2015,08,03,00,53,20.00
2015,08,03,00,54,19.90
2015,08,03,00,55,19.90
2015,08,03,00,56,19.80
2015,08,03,00,57,19.80
2015,08,03,00,58,19.80
2015,08,03,00,59,19.80
2015,08,03,01,00,19.80
2015,08,03,01,01,19.70
2015,08,03,01,02,19.70
2015,08,03,01,03,19.70
2015,08,03,01,04,19.70
2015,08,03,01,05,19.60
2015,08,03,01,06,19.60
2015,08,03,01,07,19.60
2015,08,03,01,08,19.60
2015,08,03,01,09,19.60
2015,08,03,01,10,19.60
2015,08,03,01,11,19.60
2015,08,03,01,12,19.50
2015,08,03,01,13,19.50
2015,08,03,01,14,19.50
2015,08,03,01,15,19.40
2015,08,03,01,16,19.40
2015,08,03,01,17,19.30
2015,08,03,01,18,19.30
2015,08,03,01,19,19.20
2015,08,03,01,20,19.20
2015,08,03,01,21,19.10
2015,08,03,01,22,19.10
2015,08,03,01,23,19.10
2015,08,03,01,24,19.00
2015,08,03,01,25,18.90
2015,08,03,01,26,18.90
2015,08,03,01,27,18.80
2015,08,03,01,28,18.80
2015,08,03,01,29,18.70
2015,08,03,01,30,18.70
2015,08,03,01,31,18.60
2015,08,03,01,32,18.50
2015,08,03,01,33,18.50
2015,08,03,01,34,18.40
2015,08,03,01,35,18.30
2015,08,03,01,36,18.30
2015,08,03,01,37,18.30
2015,08,03,01,38,18.20
2015,08,03,01,39,18.20
2015,08,03,01,40,18.20
2015,08,03,01,41,18.20
2015,08,03,01,42,18.20
2015,08,03,01,43,18.20
2015,08,03,01,44,18.20
2015,08,03,01,45,18.20
2015,08,03,01,46,18.10
2015,08,03,01,47,18.10
2015,08,03,01,48,18.00
2015,08,03,01,49,17.90
2015,08,03,01,50,17.90
2015,08,03,01,51,17.80
2015,08,03,01,52,17.80
2015,08,03,01,53,17.70
2015,08,03,01,54,17.70
2015,08,03,01,55,17.60
2015,08,03,01,56,17.60
2015,08,03,01,57,17.50
2015,08,03,01,58,17.40
2015,08,03,01,59,17.40
2015,08,03,02,00,17.30
2015,08,03,02,01,17.20
2015,08,03,02,02,17.20
2015,08,03,02,03,17.10
2015,08,03,02,04,17.10
2015,08,03,02,05,17.00
2015,08,03,02,06,17.00
2015,08,03,02,07,16.90
2015,08,03,02,08,16.90
2015,08,03,02,09,16.90
2015,08,03,02,10,16.80
2015,08,03,02,11,16.80
2015,08,03,02,12,16.80
2015,08,03,02,13,16.80
2015,08,03,02,14,16.70
2015,08,03,02,15,16.70
2015,08,03,02,16,16.60
2015,08,03,02,17,16.60
2015,08,03,02,18,16.60
2015,08,03,02,19,16.60
2015,08,03,02,20,16.60
2015,08,03,02,21,16.60
2015,08,03,02,22,16.60
2015,08,03,02,23,16.60
2015,08,03,02,24,16.60
2015,08,03,02,25,16.50
2015,08,03,02,26,16.50
2015,08,03,02,27,16.40
2015,08,03,02,28,16.40
2015,08,03,02,29,16.30
2015,08,03,02,30,16.20
2015,08,03,02,31,16.20
2015,08,03,02,32,16.10
2015,08,03,02,33,16.10
2015,08,03,02,34,16.00
2015,08,03,02,35,15.90
2015,08,03,02,36,15.90
2015,08,03,02,37,15.90
2015,08,03,02,38,15.80
2015,08,03,02,39,15.80
2015,08,03,02,40,15.80
2015,08,03,02,41,15.70
2015,08,03,02,42,15.70
2015,08,03,02,43,15.70
2015,08,03,02,44,15.70
2015,08,03,02,45,15.70
2015,08,03,02,46,15.60
2015,08,03,02,47,15.60
2015,08,03,02,48,15.50
2015,08,03,02,49,15.50
2015,08,03,02,50,15.40
2015,08,03,02,51,15.40
2015,08,03,02,52,15.30
2015,08,03,02,53,15.30
2015,08,03,02,54,15.30
2015,08,03,02,55,15.20
2015,08,03,02,56,15.20
2015,08,03,02,57,15.20
2015,08,03,02,58,15.20
2015,08,03,02,59,15.20
2015,08,03,03,00,15.20
2015,08,03,03,01,15.20
2015,08,03,03,02,15.10
2015,08,03,03,03,15.10
2015,08,03,03,04,15.10
2015,08,03,03,05,15.00
2015,08,03,03,06,15.00
2015,08,03,03,07,14.90
2015,08,03,03,08,14.90
2015,08,03,03,09,14.90
2015,08,03,03,10,14.80
2015,08,03,03,11,14.80
2015,08,03,03,12,14.80
2015,08,03,03,13,14.80
2015,08,03,03,14,14.70
2015,08,03,03,15,14.70
2015,08,03,03,16,14.70
2015,08,03,03,17,14.70
2015,08,03,03,18,14.60
2015,08,03,03,19,14.60
2015,08,03,03,20,14.60
2015,08,03,03,21,14.60
2015,08,03,03,22,14.50
2015,08,03,03,23,14.50
2015,08,03,03,24,14.40
2015,08,03,03,25,14.50
2015,08,03,03,26,14.50
2015,08,03,03,27,14.50
2015,08,03,03,28,14.50
2015,08,03,03,29,14.50
2015,08,03,03,30,14.40
2015,08,03,03,31,14.40
2015,08,03,03,32,14.40
2015,08,03,03,33,14.40
2015,08,03,03,34,14.40
2015,08,03,03,35,14.40
2015,08,03,03,36,14.40
2015,08,03,03,37,14.40
2015,08,03,03,38,14.40
2015,08,03,03,39,14.50
2015,08,03,03,40,14.60
2015,08,03,03,41,14.60
2015,08,03,03,42,14.60
2015,08,03,03,43,14.60
2015,08,03,03,44,14.60
2015,08,03,03,45,14.60
2015,08,03,03,46,14.60
2015,08,03,03,47,14.60
2015,08,03,03,48,14.60
2015,08,03,03,49,14.60
2015,08,03,03,50,14.60
2015,08,03,03,51,14.60
2015,08,03,03,52,14.50
2015,08,03,03,53,14.50
2015,08,03,03,54,14.40
2015,08,03,03,55,14.40
2015,08,03,03,56,14.30
2015,08,03,03,57,14.30
2015,08,03,03,58,14.30
2015,08,03,03,59,14.30
2015,08,03,04,00,14.30
2015,08,03,04,01,14.30
2015,08,03,04,02,14.30
2015,08,03,04,03,14.30
2015,08,03,04,04,14.30
2015,08,03,04,05,14.40
2015,08,03,04,06,14.40
2015,08,03,04,07,14.50
2015,08,03,04,08,14.50
2015,08,03,04,09,14.50
2015,08,03,04,10,14.50
2015,08,03,04,11,14.50
2015,08,03,04,12,14.50
2015,08,03,04,13,14.50
2015,08,03,04,14,14.50
2015,08,03,04,15,14.50
2015,08,03,04,16,14.40
2015,08,03,04,17,14.40
2015,08,03,04,18,14.40
2015,08,03,04,19,14.40
2015,08,03,04,20,14.30
2015,08,03,04,21,14.30
2015,08,03,04,22,14.30
2015,08,03,04,23,14.20
2015,08,03,04,24,14.20
2015,08,03,04,25,14.20
2015,08,03,04,26,14.20
2015,08,03,04,27,14.10
2015,08,03,04,28,14.10
2015,08,03,04,29,14.10
2015,08,03,04,30,14.10
2015,08,03,04,31,14.00
2015,08,03,04,32,14.00
2015,08,03,04,33,14.00
2015,08,03,04,34,14.00
2015,08,03,04,35,14.00
2015,08,03,04,36,14.00
2015,08,03,04,37,14.00
2015,08,03,04,38,14.00
2015,08,03,04,39,14.00
2015,08,03,04,40,14.00
2015,08,03,04,41,13.90
2015,08,03,04,42,13.90
2015,08,03,04,43,13.90
2015,08,03,04,44,13.80
2015,08,03,04,45,13.80
2015,08,03,04,46,13.80
2015,08,03,04,47,13.70
2015,08,03,04,48,13.70
2015,08,03,04,49,13.60
2015,08,03,04,50,13.60
2015,08,03,04,51,13.60
2015,08,03,04,52,13.50
2015,08,03,04,53,13.50
2015,08,03,04,54,13.50
2015,08,03,04,55,13.40
2015,08,03,04,56,13.40
2015,08,03,04,57,13.40
2015,08,03,04,58,13.30
2015,08,03,04,59,13.30
2015,08,03,05,00,13.30
2015,08,03,05,01,13.40
2015,08,03,05,02,13.40
2015,08,03,05,03,13.60
2015,08,03,05,04,13.70
2015,08,03,05,05,13.80
2015,08,03,05,06,13.80
2015,08,03,05,07,13.80
2015,08,03,05,08,13.80
2015,08,03,05,09,13.80
2015,08,03,05,10,13.80
2015,08,03,05,11,13.80
2015,08,03,05,12,13.80
2015,08,03,05,13,13.80
2015,08,03,05,14,13.80
2015,08,03,05,15,13.80
2015,08,03,05,16,13.80
2015,08,03,05,17,13.70
2015,08,03,05,18,13.70
2015,08,03,05,19,13.70
2015,08,03,05,20,13.70
2015,08,03,05,21,13.70
2015,08,03,05,22,13.60
2015,08,03,05,23,13.60
2015,08,03,05,24,13.60
2015,08,03,05,25,13.50
2015,08,03,05,26,13.50
2015,08,03,05,27,13.40
2015,08,03,05,28,13.40
2015,08,03,05,29,13.40
2015,08,03,05,30,13.40
2015,08,03,05,31,13.30
2015,08,03,05,32,13.30
2015,08,03,05,33,13.30
2015,08,03,05,34,13.30
2015,08,03,05,35,13.20
2015,08,03,05,36,13.20
2015,08,03,05,37,13.20
2015,08,03,05,38,13.20
2015,08,03,05,39,13.20
2015,08,03,05,40,13.20
2015,08,03,05,41,13.10
2015,08,03,05,42,13.10
2015,08,03,05,43,13.10
2015,08,03,05,44,13.10
2015,08,03,05,45,13.10
2015,08,03,05,46,13.00
2015,08,03,05,47,13.00
2015,08,03,05,48,13.00
2015,08,03,05,49,13.00
2015,08,03,05,50,12.90
2015,08,03,05,51,12.90
2015,08,03,05,52,12.90
2015,08,03,05,53,12.80
2015,08,03,05,54,12.80
2015,08,03,05,55,12.80
2015,08,03,05,56,12.80
2015,08,03,05,57,12.80
2015,08,03,05,58,12.80
2015,08,03,05,59,12.80
2015,08,03,06,00,12.80
2015,08,03,06,01,12.80
2015,08,03,06,02,12.80
2015,08,03,06,03,12.80
2015,08,03,06,04,12.80
2015,08,03,06,05,12.80
2015,08,03,06,06,12.80
2015,08,03,06,07,12.80
2015,08,03,06,08,12.90
2015,08,03,06,09,12.90
2015,08,03,06,10,13.00
2015,08,03,06,11,13.00
2015,08,03,06,12,13.10
2015,08,03,06,13,13.20
2015,08,03,06,14,13.30
2015,08,03,06,15,13.50
2015,08,03,06,16,13.60
2015,08,03,06,17,13.60
2015,08,03,06,18,13.70
2015,08,03,06,19,13.80
2015,08,03,06,20,13.80
2015,08,03,06,21,13.90
2015,08,03,06,22,13.90
2015,08,03,06,23,13.90
2015,08,03,06,24,14.00
2015,08,03,06,25,14.00
2015,08,03,06,26,14.00
2015,08,03,06,27,14.10
2015,08,03,06,28,14.10
2015,08,03,06,29,14.10
2015,08,03,06,30,14.10
2015,08,03,06,31,14.20
2015,08,03,06,32,14.20
2015,08,03,06,33,14.20
2015,08,03,06,34,14.30
2015,08,03,06,35,14.40
2015,08,03,06,36,14.40
2015,08,03,06,37,14.40
2015,08,03,06,38,14.40
2015,08,03,06,39,14.40
2015,08,03,06,40,14.40
2015,08,03,06,41,14.40
2015,08,03,06,42,14.30
2015,08,03,06,43,14.30
2015,08,03,06,44,14.30
2015,08,03,06,45,14.30
2015,08,03,06,46,14.30
2015,08,03,06,47,14.30
2015,08,03,06,48,14.20
2015,08,03,06,49,14.20
2015,08,03,06,50,14.20
2015,08,03,06,51,14.20
2015,08,03,06,52,14.20
2015,08,03,06,53,14.20
2015,08,03,06,54,14.30
2015,08,03,06,55,14.30
2015,08,03,06,56,14.30
2015,08,03,06,57,14.30
2015,08,03,06,58,14.30
2015,08,03,06,59,14.40
2015,08,03,07,00,14.40
2015,08,03,07,01,14.40
2015,08,03,07,02,14.50
2015,08,03,07,03,14.50
2015,08,03,07,04,14.50
2015,08,03,07,05,14.60
2015,08,03,07,06,14.60
2015,08,03,07,07,14.70
2015,08,03,07,08,14.70
2015,08,03,07,09,14.80
2015,08,03,07,10,14.80
2015,08,03,07,11,14.90
2015,08,03,07,12,15.00
2015,08,03,07,13,15.10
2015,08,03,07,14,15.20
2015,08,03,07,15,15.30
2015,08,03,07,16,15.30
2015,08,03,07,17,15.50
2015,08,03,07,18,15.60
2015,08,03,07,19,15.70
2015,08,03,07,20,15.80
2015,08,03,07,21,15.90
2015,08,03,07,22,16.00
2015,08,03,07,23,16.10
2015,08,03,07,24,16.20
2015,08,03,07,25,16.30
2015,08,03,07,26,16.40
2015,08,03,07,27,16.50
2015,08,03,07,28,16.70
2015,08,03,07,29,16.80
2015,08,03,07,30,16.90
2015,08,03,07,31,17.00
2015,08,03,07,32,17.10
2015,08,03,07,33,17.20
2015,08,03,07,34,17.20
2015,08,03,07,35,17.30
2015,08,03,07,36,17.30
2015,08,03,07,37,17.40
2015,08,03,07,38,17.40
2015,08,03,07,39,17.50
2015,08,03,07,40,17.60
2015,08,03,07,41,17.60
2015,08,03,07,42,17.60
2015,08,03,07,43,17.70
2015,08,03,07,44,17.70
2015,08,03,07,45,17.70
2015,08,03,07,46,17.70
2015,08,03,07,47,17.80
2015,08,03,07,48,17.80
2015,08,03,07,49,17.80
2015,08,03,07,50,17.80
2015,08,03,07,51,17.80
2015,08,03,07,52,17.90
2015,08,03,07,53,17.90
2015,08,03,07,54,17.90
2015,08,03,07,55,18.00
2015,08,03,07,56,18.00
2015,08,03,07,57,18.10
2015,08,03,07,58,18.10
2015,08,03,07,59,18.10
2015,08,03,08,00,18.20
2015,08,03,08,01,18.20
2015,08,03,08,02,18.20
2015,08,03,08,03,18.20
2015,08,03,08,04,18.20
2015,08,03,08,05,18.20
2015,08,03,08,06,18.20
2015,08,03,08,07,18.20
2015,08,03,08,08,18.30
2015,08,03,08,09,18.30
2015,08,03,08,10,18.30
2015,08,03,08,11,18.30
2015,08,03,08,12,18.30
2015,08,03,08,13,18.30
2015,08,03,08,14,18.40
2015,08,03,08,15,18.40
2015,08,03,08,16,18.40
2015,08,03,08,17,18.50
2015,08,03,08,18,18.50
2015,08,03,08,19,18.60
2015,08,03,08,20,18.60
2015,08,03,08,21,18.60
2015,08,03,08,22,18.60
2015,08,03,08,23,18.60
2015,08,03,08,24,18.60
2015,08,03,08,25,18.60
2015,08,03,08,26,18.70
2015,08,03,08,27,18.70
2015,08,03,08,28,18.70
2015,08,03,08,29,18.80
2015,08,03,08,30,18.80
2015,08,03,08,31,18.90
2015,08,03,08,32,18.90
2015,08,03,08,33,19.00
2015,08,03,08,34,19.00
2015,08,03,08,35,19.10
2015,08,03,08,36,19.10
2015,08,03,08,37,19.10
2015,08,03,08,38,19.10
2015,08,03,08,39,19.10
2015,08,03,08,40,19.20
2015,08,03,08,41,19.20
2015,08,03,08,42,19.30
2015,08,03,08,43,19.40
2015,08,03,08,44,19.40
2015,08,03,08,45,19.50
2015,08,03,08,46,19.50
2015,08,03,08,47,19.60
2015,08,03,08,48,19.60
2015,08,03,08,49,19.70
2015,08,03,08,50,19.70
2015,08,03,08,51,19.70
2015,08,03,08,52,19.70
2015,08,03,08,53,19.70
2015,08,03,08,54,19.70
2015,08,03,08,55,19.70
2015,08,03,08,56,19.70
2015,08,03,08,57,19.70
2015,08,03,08,58,19.70
2015,08,03,08,59,19.70
2015,08,03,09,00,19.70
2015,08,03,09,01,19.70
2015,08,03,09,02,19.70
2015,08,03,09,03,19.80
2015,08,03,09,04,19.80
2015,08,03,09,05,19.80
2015,08,03,09,06,19.70
2015,08,03,09,07,19.70
2015,08,03,09,08,19.60
2015,08,03,09,09,19.60
2015,08,03,09,10,19.60
2015,08,03,09,11,19.60
2015,08,03,09,12,19.60
2015,08,03,09,13,19.60
2015,08,03,09,14,19.70
2015,08,03,09,15,19.70
2015,08,03,09,16,19.70
2015,08,03,09,17,19.70
2015,08,03,09,18,19.70
2015,08,03,09,19,19.70
2015,08,03,09,20,19.70
2015,08,03,09,21,19.60
2015,08,03,09,22,19.60
2015,08,03,09,23,19.60
2015,08,03,09,24,19.50
2015,08,03,09,25,19.50
2015,08,03,09,26,19.50
2015,08,03,09,27,19.50
2015,08,03,09,28,19.50
2015,08,03,09,29,19.50
2015,08,03,09,30,19.50
2015,08,03,09,31,19.60
2015,08,03,09,32,19.60
2015,08,03,09,33,19.60
2015,08,03,09,34,19.60
2015,08,03,09,35,19.60
2015,08,03,09,36,19.60
2015,08,03,09,37,19.60
2015,08,03,09,38,19.60
2015,08,03,09,39,19.60
2015,08,03,09,40,19.60
2015,08,03,09,41,19.70
2015,08,03,09,42,19.70
2015,08,03,09,43,19.70
2015,08,03,09,44,19.60
2015,08,03,09,45,19.70
2015,08,03,09,46,19.70
2015,08,03,09,47,19.80
2015,08,03,09,48,19.80
2015,08,03,09,49,19.80
2015,08,03,09,50,19.80
2015,08,03,09,51,19.80
2015,08,03,09,52,19.80
2015,08,03,09,53,19.80
2015,08,03,09,54,19.80
2015,08,03,09,55,19.80
2015,08,03,09,56,19.80
2015,08,03,09,57,19.80
2015,08,03,09,58,19.80
2015,08,03,09,59,19.90
2015,08,03,10,00,20.00
2015,08,03,10,01,20.00
2015,08,03,10,02,20.00
2015,08,03,10,03,20.10
2015,08,03,10,04,20.10
2015,08,03,10,05,20.00
2015,08,03,10,06,20.00
2015,08,03,10,07,19.90
2015,08,03,10,08,19.90
2015,08,03,10,09,19.90
2015,08,03,10,10,19.90
2015,08,03,10,11,19.90
2015,08,03,10,12,19.90
2015,08,03,10,13,19.90
2015,08,03,10,14,19.90
2015,08,03,10,15,19.90
2015,08,03,10,16,19.90
2015,08,03,10,17,19.90
2015,08,03,10,18,19.90
2015,08,03,10,19,19.90
2015,08,03,10,20,19.90
2015,08,03,10,21,19.90
2015,08,03,10,22,19.90
2015,08,03,10,23,19.90
2015,08,03,10,24,19.90
2015,08,03,10,25,19.90
2015,08,03,10,26,19.90
2015,08,03,10,27,19.90
2015,08,03,10,28,19.90
2015,08,03,10,29,19.90
2015,08,03,10,30,20.00
2015,08,03,10,31,20.00
2015,08,03,10,32,20.10
2015,08,03,10,33,20.10
2015,08,03,10,34,20.20
2015,08,03,10,35,20.20
2015,08,03,10,36,20.10
2015,08,03,10,37,20.10
2015,08,03,10,38,20.10
2015,08,03,10,39,20.10
2015,08,03,10,40,20.20
2015,08,03,10,41,20.20
2015,08,03,10,42,20.20
2015,08,03,10,43,20.30
2015,08,03,10,44,20.30
2015,08,03,10,45,20.20
2015,08,03,10,46,20.20
2015,08,03,10,47,20.20
2015,08,03,10,48,20.30
2015,08,03,10,49,20.30
2015,08,03,10,50,20.30
2015,08,03,10,51,20.20
2015,08,03,10,52,20.10
2015,08,03,10,53,20.10
2015,08,03,10,54,20.20
2015,08,03,10,55,20.20
2015,08,03,10,56,20.20
2015,08,03,10,57,20.30
2015,08,03,10,58,20.30
2015,08,03,10,59,20.30
2015,08,03,11,00,20.40
2015,08,03,11,01,20.50
2015,08,03,11,02,20.60
2015,08,03,11,03,20.70
2015,08,03,11,04,20.80
2015,08,03,11,05,20.80
2015,08,03,11,06,20.80
2015,08,03,11,07,20.80
2015,08,03,11,08,20.70
2015,08,03,11,09,20.50
2015,08,03,11,10,20.40
2015,08,03,11,11,20.40
2015,08,03,11,12,20.30
2015,08,03,11,13,20.30
2015,08,03,11,14,20.30
2015,08,03,11,15,20.30
2015,08,03,11,16,20.40
2015,08,03,11,17,20.40
2015,08,03,11,18,20.40
2015,08,03,11,19,20.40
2015,08,03,11,20,20.40
2015,08,03,11,21,20.50
2015,08,03,11,22,20.50
2015,08,03,11,23,20.50
2015,08,03,11,24,20.50
2015,08,03,11,25,20.60
2015,08,03,11,26,20.70
2015,08,03,11,27,20.80
2015,08,03,11,28,20.80
2015,08,03,11,29,20.90
2015,08,03,11,30,20.90
2015,08,03,11,31,20.90
2015,08,03,11,32,20.80
2015,08,03,11,33,20.80
2015,08,03,11,34,20.80
2015,08,03,11,35,20.90
2015,08,03,11,36,20.90
2015,08,03,11,37,20.90
2015,08,03,11,38,20.80
2015,08,03,11,39,20.70
2015,08,03,11,40,20.70
2015,08,03,11,41,20.80
2015,08,03,11,42,20.80
2015,08,03,11,43,20.80
2015,08,03,11,44,20.80
2015,08,03,11,45,20.80
2015,08,03,11,46,20.80
2015,08,03,11,47,20.70
2015,08,03,11,48,20.70
2015,08,03,11,49,20.80
2015,08,03,11,50,20.80
2015,08,03,11,51,20.90
2015,08,03,11,52,21.00
2015,08,03,11,53,21.10
2015,08,03,11,54,21.20
2015,08,03,11,55,21.20
2015,08,03,11,56,21.20
2015,08,03,11,57,21.20
2015,08,03,11,58,21.20
2015,08,03,11,59,21.10
2015,08,03,12,00,21.10
2015,08,03,12,01,21.10
2015,08,03,12,02,21.00
2015,08,03,12,03,21.00
2015,08,03,12,04,21.00
2015,08,03,12,05,21.00
2015,08,03,12,06,21.00
2015,08,03,12,07,21.10
2015,08,03,12,08,21.10
2015,08,03,12,09,21.10
2015,08,03,12,10,21.20
2015,08,03,12,11,21.20
2015,08,03,12,12,21.20
2015,08,03,12,13,21.30
2015,08,03,12,14,21.30
2015,08,03,12,15,21.30
2015,08,03,12,16,21.30
2015,08,03,12,17,21.30
2015,08,03,12,18,21.30
2015,08,03,12,19,21.30
2015,08,03,12,20,21.30
2015,08,03,12,21,21.40
2015,08,03,12,22,21.50
2015,08,03,12,23,21.50
2015,08,03,12,24,21.50
2015,08,03,12,25,21.40
2015,08,03,12,26,21.50
2015,08,03,12,27,21.50
2015,08,03,12,28,21.60
2015,08,03,12,29,21.60
2015,08,03,12,30,21.60
2015,08,03,12,31,21.60
2015,08,03,12,32,21.70
2015,08,03,12,33,21.80
2015,08,03,12,34,21.80
2015,08,03,12,35,21.90
2015,08,03,12,36,22.00
2015,08,03,12,37,22.10
2015,08,03,12,38,22.20
2015,08,03,12,39,22.20
2015,08,03,12,40,22.30
2015,08,03,12,41,22.30
2015,08,03,12,42,22.40
2015,08,03,12,43,22.40
2015,08,03,12,44,22.50
2015,08,03,12,45,22.60
2015,08,03,12,46,22.60
2015,08,03,12,47,22.70
2015,08,03,12,48,22.70
2015,08,03,12,49,22.80
2015,08,03,12,50,22.80
2015,08,03,12,51,22.80
2015,08,03,12,52,22.80
2015,08,03,12,53,22.70
2015,08,03,12,54,22.70
2015,08,03,12,55,22.70
2015,08,03,12,56,22.60
2015,08,03,12,57,22.60
2015,08,03,12,58,22.60
2015,08,03,12,59,22.70
2015,08,03,13,00,22.80
2015,08,03,13,01,22.90
2015,08,03,13,02,22.90
2015,08,03,13,03,23.00
2015,08,03,13,04,23.00
2015,08,03,13,05,23.00
2015,08,03,13,06,22.90
2015,08,03,13,07,22.90
2015,08,03,13,08,22.80
2015,08,03,13,09,22.80
2015,08,03,13,10,22.80
2015,08,03,13,11,22.70
2015,08,03,13,12,22.70
2015,08,03,13,13,22.80
2015,08,03,13,14,22.80
2015,08,03,13,15,22.80
2015,08,03,13,16,22.80
2015,08,03,13,17,22.80
2015,08,03,13,18,22.80
2015,08,03,13,19,22.80
2015,08,03,13,20,22.80
2015,08,03,13,21,22.70
2015,08,03,13,22,22.70
2015,08,03,13,23,22.70
2015,08,03,13,24,22.70
2015,08,03,13,25,22.80
2015,08,03,13,26,22.80
2015,08,03,13,27,22.80
2015,08,03,13,28,22.70
2015,08,03,13,29,22.70
2015,08,03,13,30,22.70
2015,08,03,13,31,22.80
2015,08,03,13,32,22.80
2015,08,03,13,33,22.80
2015,08,03,13,34,22.90
2015,08,03,13,35,22.90
2015,08,03,13,36,22.90
2015,08,03,13,37,23.00
2015,08,03,13,38,23.10
2015,08,03,13,39,23.00
2015,08,03,13,40,23.10
2015,08,03,13,41,23.10
2015,08,03,13,42,23.10
2015,08,03,13,43,23.20
2015,08,03,13,44,23.20
2015,08,03,13,45,23.20
2015,08,03,13,46,23.20
2015,08,03,13,47,23.20
2015,08,03,13,48,23.20
2015,08,03,13,49,23.30
2015,08,03,13,50,23.40
2015,08,03,13,51,23.50
2015,08,03,13,52,23.60
2015,08,03,13,53,23.60
2015,08,03,13,54,23.60
2015,08,03,13,55,23.60
2015,08,03,13,56,23.50
2015,08,03,13,57,23.40
2015,08,03,13,58,23.50
2015,08,03,13,59,23.60
2015,08,03,14,00,23.60
2015,08,03,14,01,23.70
2015,08,03,14,02,23.80
2015,08,03,14,03,23.90
2015,08,03,14,04,23.90
2015,08,03,14,05,23.90
2015,08,03,14,06,23.90
2015,08,03,14,07,23.80
2015,08,03,14,08,23.80
2015,08,03,14,09,23.80
2015,08,03,14,10,23.80
2015,08,03,14,11,23.90
2015,08,03,14,12,23.90
2015,08,03,14,13,24.00
2015,08,03,14,14,24.10
2015,08,03,14,15,24.10
2015,08,03,14,16,24.10
2015,08,03,14,17,24.10
2015,08,03,14,18,24.10
2015,08,03,14,19,24.10
2015,08,03,14,20,24.10
2015,08,03,14,21,24.00
2015,08,03,14,22,24.00
2015,08,03,14,23,23.90
2015,08,03,14,24,23.90
2015,08,03,14,25,23.90
2015,08,03,14,26,23.90
2015,08,03,14,27,23.90
2015,08,03,14,28,23.80
2015,08,03,14,29,23.80
2015,08,03,14,30,23.70
2015,08,03,14,31,23.60
2015,08,03,14,32,23.60
2015,08,03,14,33,23.70
2015,08,03,14,34,23.80
2015,08,03,14,35,23.80
2015,08,03,14,36,23.90
2015,08,03,14,37,23.90
2015,08,03,14,38,24.00
2015,08,03,14,39,24.10
2015,08,03,14,40,24.10
2015,08,03,14,41,24.10
2015,08,03,14,42,24.10
2015,08,03,14,43,24.10
2015,08,03,14,44,24.10
2015,08,03,14,45,24.10
2015,08,03,14,46,24.20
2015,08,03,14,47,24.30
2015,08,03,14,48,24.20
2015,08,03,14,49,24.20
2015,08,03,14,50,24.10
2015,08,03,14,51,24.10
2015,08,03,14,52,24.00
2015,08,03,14,53,24.10
2015,08,03,14,54,24.00
2015,08,03,14,55,23.90
2015,08,03,14,56,23.70
2015,08,03,14,57,23.60
2015,08,03,14,58,23.60
2015,08,03,14,59,23.60
2015,08,03,15,00,23.70
2015,08,03,15,01,23.70
2015,08,03,15,02,23.60
2015,08,03,15,03,23.60
2015,08,03,15,04,23.60
2015,08,03,15,05,23.60
2015,08,03,15,06,23.70
2015,08,03,15,07,23.70
2015,08,03,15,08,23.60
2015,08,03,15,09,23.40
2015,08,03,15,10,23.20
2015,08,03,15,11,23.20
2015,08,03,15,12,23.30
2015,08,03,15,13,23.30
2015,08,03,15,14,23.30
2015,08,03,15,15,23.30
2015,08,03,15,16,23.30
2015,08,03,15,17,23.20
2015,08,03,15,18,23.30
2015,08,03,15,19,23.40
2015,08,03,15,20,23.50
2015,08,03,15,21,23.60
2015,08,03,15,22,23.80
2015,08,03,15,23,23.90
2015,08,03,15,24,24.00
2015,08,03,15,25,24.00
2015,08,03,15,26,24.00
2015,08,03,15,27,23.90
2015,08,03,15,28,23.90
2015,08,03,15,29,24.00
2015,08,03,15,30,24.00
2015,08,03,15,31,24.10
2015,08,03,15,32,24.20
2015,08,03,15,33,24.20
2015,08,03,15,34,24.10
2015,08,03,15,35,24.10
2015,08,03,15,36,24.00
2015,08,03,15,37,24.00
2015,08,03,15,38,23.90
2015,08,03,15,39,23.90
2015,08,03,15,40,23.90
2015,08,03,15,41,23.90
2015,08,03,15,42,23.80
2015,08,03,15,43,23.80
2015,08,03,15,44,23.80
2015,08,03,15,45,23.70
2015,08,03,15,46,23.60
2015,08,03,15,47,23.50
2015,08,03,15,48,23.30
2015,08,03,15,49,23.20
2015,08,03,15,50,23.00
2015,08,03,15,51,22.90
2015,08,03,15,52,22.80
2015,08,03,15,53,22.70
2015,08,03,15,54,22.50
2015,08,03,15,55,22.50
2015,08,03,15,56,22.40
2015,08,03,15,57,22.40
2015,08,03,15,58,22.40
2015,08,03,15,59,22.40
2015,08,03,16,00,22.40
2015,08,03,16,01,22.40
2015,08,03,16,02,22.30
2015,08,03,16,03,22.30
2015,08,03,16,04,22.30
2015,08,03,16,05,22.40
2015,08,03,16,06,22.40
2015,08,03,16,07,22.40
2015,08,03,16,08,22.40
2015,08,03,16,09,22.30
2015,08,03,16,10,22.30
2015,08,03,16,11,22.30
2015,08,03,16,12,22.40
2015,08,03,16,13,22.50
2015,08,03,16,14,22.60
2015,08,03,16,15,22.70
2015,08,03,16,16,22.80
2015,08,03,16,17,22.80
2015,08,03,16,18,22.70
2015,08,03,16,19,22.50
2015,08,03,16,20,22.50
2015,08,03,16,21,22.30
2015,08,03,16,22,22.30
2015,08,03,16,23,22.20
2015,08,03,16,24,22.20
2015,08,03,16,25,22.20
2015,08,03,16,26,22.20
2015,08,03,16,27,22.20
2015,08,03,16,28,22.20
2015,08,03,16,29,22.30
2015,08,03,16,30,22.40
2015,08,03,16,31,22.40
2015,08,03,16,32,22.40
2015,08,03,16,33,22.40
2015,08,03,16,34,22.50
2015,08,03,16,35,22.60
2015,08,03,16,36,22.60
2015,08,03,16,37,22.70
2015,08,03,16,38,22.70
2015,08,03,16,39,22.80
2015,08,03,16,40,22.80
2015,08,03,16,41,22.80
2015,08,03,16,42,22.80
2015,08,03,16,43,22.90
2015,08,03,16,44,22.90
2015,08,03,16,45,22.90
2015,08,03,16,46,22.90
2015,08,03,16,47,22.90
2015,08,03,16,48,22.90
2015,08,03,16,49,23.00
2015,08,03,16,50,23.00
2015,08,03,16,51,23.00
2015,08,03,16,52,23.10
2015,08,03,16,53,23.20
2015,08,03,16,54,23.30
2015,08,03,16,55,23.30
2015,08,03,16,56,23.40
2015,08,03,16,57,23.50
2015,08,03,16,58,23.60
2015,08,03,16,59,23.70
2015,08,03,17,00,23.70
2015,08,03,17,01,23.70
2015,08,03,17,02,23.70
2015,08,03,17,03,23.70
2015,08,03,17,04,23.70
2015,08,03,17,05,23.80
2015,08,03,17,06,23.80
2015,08,03,17,07,23.80
2015,08,03,17,08,23.80
2015,08,03,17,09,23.70
2015,08,03,17,10,23.60
2015,08,03,17,11,23.60
2015,08,03,17,12,23.60
2015,08,03,17,13,23.60
2015,08,03,17,14,23.70
2015,08,03,17,15,23.70
2015,08,03,17,16,23.70
2015,08,03,17,17,23.70
2015,08,03,17,18,23.70
2015,08,03,17,19,23.60